International Falls, MN

3:24 AM CDT on April 21, 2018 (GMT -0500)
Falls International

Weather History for KINL - November, 2011

Change the Weather History Date:

Saturday, November 26, 2011

  Actual Average Record
Temperature  
Mean Temperature 31 °F 19 °F  
Max Temperature 34 °F 27 °F 53 °F (1962)
Min Temperature 28 °F 11 °F -21 °F (1977)
Degree Days  
Heating Degree Days 34 46  
Month to date heating degree days 907 994  
Since 1 July heating degree days 1953 2271  
Cooling Degree Days 0 0  
Month to date cooling degree days 0 0  
Year to date cooling degree days 207 192  
Moisture  
Dew Point 28 °F    
Average Humidity 87    
Maximum Humidity 92    
Minimum Humidity 82    
Precipitation  
Precipitation 0.48 in 0.03 in 1.02 in (1965)
Month to date precipitation 0.91 1.23  
Year to date precipitation 19.22 23.26  
Snow  
Snow 4.50 in 0.50 in 11.00 in (1965)
Month to date snowfall 12.3 11.4  
Since 1 July snowfall 12.3 13.7  
Since 1 September snowfall 12.3 13.7  
Snow Depth 1.00 in    
Sea Level Pressure  
Sea Level Pressure 29.93 in    
Wind  
Wind Speed 10 mph (North)    
Max Wind Speed 17 mph    
Max Gust Speed 24 mph    
Visibility 4 miles    
Events Fog , Rain , Snow    
T = Trace of Precipitation, MM = Missing Value Source: NWS Daily Summary

Daily Weather History Graph

Daily Weather History Graph

Search for Another Location

Airport or City:

Astronomy

Nov. 26, 2011 Rise Set
Actual Time 7:37 AM CST 4:23 PM CST
Civil Twilight 7:02 AM CST 4:59 PM CST
Nautical Twilight 6:23 AM CST 5:38 PM CST
Astronomical Twilight 5:45 AM CST 6:15 PM CST
Moon 9:14 AM CST (11/26) 5:50 PM CST (11/26)
Length of Visible Light 9h 57m
Length of Day
8h 46m
Waxing Crescent, 3% of the Moon is Illuminated
Nov 26
Waxing Crescent
Dec 2
First Quarter
Dec 10
Full
Dec 17
Last Quarter
Dec 24
New

Hourly Weather History & Observations

Time (CST) Temp. Windchill Dew Point Humidity Pressure Visibility Wind Dir Wind Speed Gust Speed Precip Events Conditions
12:55 AM 33.1 °F 25.5 °F 28.0 °F 82% 29.87 in 9.0 mi ENE 9.2 mph 16.1 mph N/A   Overcast
1:55 AM 32.0 °F 24.8 °F 30.0 °F 92% 29.86 in 3.0 mi East 8.1 mph 17.3 mph 0.00 in   Overcast
2:11 AM 32.0 °F 23.6 °F 30.2 °F 93% 29.82 in 2.5 mi East 10.4 mph - 0.00 in   Overcast
2:19 AM 32.0 °F 24.8 °F 30.2 °F 93% 29.82 in 3.0 mi East 8.1 mph - 0.00 in   Overcast
2:55 AM 32.0 °F 24.8 °F 30.0 °F 92% 29.86 in 8.0 mi ENE 8.1 mph - 0.01 in   Overcast
3:55 AM 32.0 °F 25.6 °F 30.0 °F 92% 29.86 in 7.0 mi ENE 6.9 mph - 0.02 in Rain Light Freezing Rain
4:34 AM 32.0 °F 24.8 °F 30.2 °F 93% 29.82 in 5.0 mi ENE 8.1 mph - 0.04 in Rain Light Freezing Rain
4:42 AM 32.0 °F 24.8 °F 30.2 °F 93% 29.82 in 3.0 mi ENE 8.1 mph - 0.05 in Snow Light Snow
4:51 AM 32.0 °F 24.8 °F 30.2 °F 93% 29.82 in 1.8 mi ENE 8.1 mph - 0.06 in Snow Light Snow
4:55 AM 32.0 °F 23.0 °F 30.0 °F 92% 29.86 in 1.5 mi ENE 11.5 mph - 0.06 in Snow Light Snow
5:35 AM 32.0 °F 24.8 °F 30.2 °F 93% 29.83 in 0.8 mi NE 8.1 mph - 0.04 in Snow Light Snow
5:55 AM 32.0 °F 26.4 °F 30.0 °F 92% 29.88 in 0.5 mi NE 5.8 mph - 0.08 in Fog , Snow Snow
6:55 AM 30.9 °F 25.2 °F 28.9 °F 92% 29.89 in 0.8 mi NNE 5.8 mph - 0.09 in Snow Light Snow
7:55 AM 30.9 °F 24.3 °F 28.9 °F 92% 29.91 in 0.8 mi North 6.9 mph - 0.08 in Snow Light Snow
8:04 AM 30.2 °F 23.4 °F 28.4 °F 93% 29.87 in 0.8 mi North 6.9 mph - 0.01 in Snow Light Snow
8:22 AM 30.2 °F 23.4 °F 28.4 °F 93% 29.87 in 0.2 mi North 6.9 mph - 0.02 in Fog , Snow Snow
8:46 AM 30.2 °F 23.4 °F 28.4 °F 93% 29.87 in 0.2 mi North 6.9 mph - 0.05 in Fog , Snow Snow
8:55 AM 30.9 °F 24.3 °F 28.9 °F 92% 29.93 in 0.5 mi North 6.9 mph - 0.06 in Fog , Snow Snow
9:27 AM 30.2 °F 23.4 °F 28.4 °F 93% 29.88 in 0.5 mi North 6.9 mph - 0.03 in Fog , Snow Snow
9:55 AM 30.9 °F 25.2 °F 28.9 °F 92% 29.93 in 0.8 mi North 5.8 mph - 0.04 in Snow Light Snow
10:02 AM 30.2 °F 24.3 °F 28.4 °F 93% 29.89 in 1.2 mi North 5.8 mph - 0.00 in Snow Light Snow
10:14 AM 30.2 °F 25.4 °F 28.4 °F 93% 29.88 in 1.2 mi NNE 4.6 mph - 0.00 in Snow Light Snow
10:25 AM 30.2 °F 24.3 °F 28.4 °F 93% 29.88 in 1.0 mi NNE 5.8 mph - 0.00 in Snow Light Snow
10:37 AM 30.2 °F 22.6 °F 28.4 °F 93% 29.88 in 0.8 mi North 8.1 mph - 0.01 in Snow Light Snow
10:47 AM 30.2 °F 24.3 °F 28.4 °F 93% 29.88 in 1.0 mi North 5.8 mph - 0.01 in Snow Light Snow
10:55 AM 30.9 °F 24.3 °F 28.9 °F 92% 29.94 in 1.2 mi North 6.9 mph - 0.01 in Snow Light Snow
11:55 AM 30.9 °F 24.3 °F 28.0 °F 89% 29.93 in 1.5 mi NNW 6.9 mph - 0.02 in Snow Light Snow
12:02 PM 30.2 °F 21.9 °F 28.4 °F 93% 29.87 in 2.0 mi NNW 9.2 mph - 0.00 in Snow Light Snow
12:15 PM 30.2 °F 23.4 °F 28.4 °F 93% 29.87 in 4.0 mi North 6.9 mph - 0.00 in Snow Light Snow
12:55 PM 30.9 °F 24.3 °F 28.0 °F 89% 29.93 in 6.0 mi North 6.9 mph - 0.00 in   Overcast
1:06 PM 30.2 °F 21.9 °F 28.4 °F 93% 29.89 in 7.0 mi NNW 9.2 mph - N/A   Overcast
1:11 PM 30.2 °F 22.6 °F 28.4 °F 93% 29.89 in 9.0 mi NNW 8.1 mph - N/A   Overcast
1:40 PM 30.2 °F 21.9 °F 28.4 °F 93% 29.89 in 5.0 mi NNW 9.2 mph - N/A   Overcast
1:55 PM 30.9 °F 22.2 °F 28.0 °F 89% 29.94 in 9.0 mi NNW 10.4 mph - N/A   Overcast
2:00 PM 30.2 °F 22.6 °F 28.4 °F 93% 29.89 in 10.0 mi NNW 8.1 mph - N/A   Overcast
2:33 PM 30.2 °F 22.6 °F 28.4 °F 93% 29.90 in 2.5 mi NNW 8.1 mph - 0.00 in Snow Light Snow
2:39 PM 30.2 °F 21.3 °F 28.4 °F 93% 29.90 in 4.0 mi NNW 10.4 mph - 0.00 in Snow Light Snow
2:55 PM 30.9 °F 22.2 °F 28.0 °F 89% 29.96 in 8.0 mi NNW 10.4 mph - 0.00 in Snow Light Snow
3:12 PM 30.2 °F 21.3 °F 28.4 °F 93% 29.92 in 2.0 mi NW 10.4 mph - 0.00 in Snow Light Snow
3:22 PM 30.2 °F 21.3 °F 28.4 °F 93% 29.92 in 7.0 mi NW 10.4 mph - 0.01 in Snow Light Snow
3:34 PM 30.2 °F 21.9 °F 28.4 °F 93% 29.93 in 5.0 mi NW 9.2 mph - 0.01 in Snow Light Snow
3:55 PM 30.9 °F 22.2 °F 28.0 °F 89% 29.99 in 3.0 mi NW 10.4 mph - 0.01 in Snow Light Snow
4:04 PM 30.2 °F 20.2 °F 28.4 °F 93% 29.95 in 2.0 mi NW 12.7 mph - 0.00 in Snow Light Snow
4:18 PM 30.2 °F 20.8 °F 28.4 °F 93% 29.96 in 2.0 mi NW 11.5 mph - 0.00 in Snow Light Snow
4:25 PM 30.2 °F 21.3 °F 28.4 °F 93% 29.96 in 2.5 mi NW 10.4 mph - 0.00 in Snow Light Snow
4:32 PM 30.2 °F 21.3 °F 28.4 °F 93% 29.96 in 4.0 mi NW 10.4 mph - 0.00 in Snow Light Snow
4:55 PM 30.9 °F 22.2 °F 28.0 °F 89% 30.02 in 4.0 mi NW 10.4 mph - 0.00 in Snow Light Snow
5:42 PM 30.2 °F 19.8 °F 26.6 °F 86% 30.00 in 3.0 mi NW 13.8 mph 21.9 mph 0.00 in Snow Light Snow
5:50 PM 30.0 °F 20.5 °F 27.0 °F 88% 30.05 in 2.5 mi NW 11.5 mph - 0.00 in Snow Light Snow
6:09 PM 30.2 °F 20.8 °F 26.6 °F 86% 30.01 in 3.0 mi NW 11.5 mph - 0.01 in Snow Light Snow
6:16 PM 30.2 °F 20.8 °F 26.6 °F 86% 30.01 in 2.5 mi NW 11.5 mph - 0.01 in Snow Light Snow
6:24 PM 30.2 °F 20.2 °F 26.6 °F 86% 30.01 in 3.0 mi NW 12.7 mph - 0.01 in Snow Light Snow
6:33 PM 30.2 °F 19.8 °F 26.6 °F 86% 30.01 in 3.0 mi NW 13.8 mph - 0.01 in Snow Light Snow
6:55 PM 28.9 °F 17.7 °F 26.1 °F 89% 30.08 in 9.0 mi NW 15.0 mph - 0.01 in Snow Light Snow
7:55 PM 28.9 °F 17.7 °F 25.0 °F 85% 30.10 in 10.0 mi NW 15.0 mph 20.7 mph 0.00 in   Overcast
8:55 PM 28.9 °F 18.6 °F 25.0 °F 85% 30.11 in 10.0 mi NNW 12.7 mph - N/A   Overcast
9:48 PM 28.4 °F 18.0 °F 24.8 °F 86% 30.06 in 10.0 mi NW 12.7 mph - N/A   Overcast
9:55 PM 28.9 °F 18.6 °F 25.0 °F 85% 30.12 in 10.0 mi NNW 12.7 mph 20.7 mph N/A   Overcast
10:55 PM 28.0 °F 16.1 °F 24.1 °F 85% 30.13 in 10.0 mi NNW 16.1 mph - N/A   Overcast
11:55 PM 28.4 °F 18.5 °F 24.8 °F 86% 30.09 in 10.0 mi NNW 11.5 mph - N/A   Overcast